一网星座-0653星 (ONEWEB-0653)

导读

ONEWEB-0653是英国OneWeb公司的低地球轨道宽带卫星,于北京时间2023年3月9日,由SpaceX猎鹰9号火箭在佛罗里达州卡纳维拉尔角航天站发射升空,属于OneWeb 17任务批次。该卫星部署后,OneWeb在轨卫星总数达到582颗,接近完成600多颗卫星的全球互联网星座组网目标,助力OneWeb为全球用户提供泛在卫星宽带互联网接入服务。

Basic Information
目录编号:
55815
目录名称:
ONEWEB-0653
国际标识:
2023-029V
轨道中心:
EARTH
卫星名称:
一网星座-0653星
卫星全名:
一网星座-0653星 (ONEWEB-0653)
卫星状态:
在轨 (已飞行1237 天)
发射日期:
2023-03-09 UTC
国别 :
英国 (GB)
星等 :
--
Orbit Information
数据来源 国际轨道数据 AOE轨道数据
星历时间 2026-07-27T12:35:52+0800
22小时前
查看轨道信息
2026-07-25T01:00:00+0800
3天前
查看轨道信息
半长轴 7583.918km 7583.939km
偏心率 0.0002045 0.0001923
轨道倾角 87.896° 87.897°
近地点辐角 97.931° 99.138°
升交点赤经 281.738° 282.232°
平近点角 262.205° 36.473°
近地点 1204.23km 1204.343km
远地点 1207.332km 1207.261km
周期 109.547分钟 109.547分钟
每日圈数 13.145053 13.145
Detailed Information
平衡模式:
三轴稳定
覆盖范围:
全球
运营商:
一网卫星公司
运营商所在国:
英国
制造商(研发单位):
一网卫星公司
制造商所在国:
英国
使用方式:
暂无
Satellite Introduction
OneWeb卫星网络由648颗重约125公斤的微型卫星组成,运行在1200公里的轨道上。 每颗卫星都能够提供至少每秒8千兆位的吞吐量,以使用其高吞吐量的Ku频段有效载荷为家庭和移动平台提供互联网接入。该卫星仍在工作。
2D Orbit Map
3D Orbit Map
Orbit Altitude Analysis Chart
Orbit Inclination Analysis Chart
Orbit Comprehensive Analysis Chart
View Comprehensive Chart